Weather History for KHZY - May, 2013

Change the Weather History Date:

Wednesday, May 1, 2013

  Actual Average (KYNG) Record (KYNG)
Temperature  
Mean Temperature 66 °F 54 °F  
Max Temperature 77 °F 65 °F 85 °F (1970)
Min Temperature 55 °F 43 °F 25 °F (1978)
Degree Days  
Heating Degree Days 0 12  
Month to date heating degree days 12  
Since 1 July heating degree days 6039  
Cooling Degree Days 1 0  
Month to date cooling degree days 0  
Year to date cooling degree days 9  
Growing Degree Days 16 (Base 50)    
Moisture  
Dew Point 48 °F    
Average Humidity 54    
Maximum Humidity 74    
Minimum Humidity 34    
Precipitation  
Precipitation 0.00 in 0.11 in 0.87 in (2004)
Month to date precipitation 0.11  
Year to date precipitation 11.11  
Snow  
Snow 0.00 in 0.00 in - ()
Month to date snowfall 0.0  
Since 1 July snowfall 62.7  
Snow Depth -    
Sea Level Pressure  
Sea Level Pressure 30.26 in    
Wind  
Wind Speed 9 mph (SSE)    
Max Wind Speed 14 mph    
Max Gust Speed 21 mph    
Visibility 10 miles    
Events      
T = Trace of Precipitation, MM = Missing Value Source: NWS Daily Summary

Daily Weather History Graph

Daily Weather History Graph

Search for Another Location

Airport or City:

Trip Planner

Search our weather history database for the weather conditions in past years. The results will help you decide how hot, cold, wet, or windy it might be!

Date:

Astronomy

May. 01, 2013 Rise Set
Actual Time 6:18 AM EDT 8:21 PM EDT
Civil Twilight 5:48 AM EDT 8:51 PM EDT
Nautical Twilight 5:11 AM EDT 9:29 PM EDT
Astronomical Twilight 4:31 AM EDT 10:09 PM EDT
Moon 1:30 AM EDT (5/1) 11:55 AM EDT (5/1)
Length of Visible Light 15h 03m
Length of Day
14h 02m
Waning Gibbous, 59% of the Moon is Illuminated
May 1
Waning Gibbous
May 2
Last Quarter
May 9
New
May 18
First Quarter
May 25
Full

Hourly Weather History & Observations

Time (EDT) Temp. Dew Point Humidity Pressure Visibility Wind Dir Wind Speed Gust Speed Precip Events Conditions
1:53 AM 57.9 °F 48.0 °F 70% 30.19 in 10.0 mi SSE 8.1 mph - N/A   Clear
2:53 AM 57.0 °F 46.9 °F 69% 30.19 in 10.0 mi SSE 8.1 mph - N/A   Clear
3:53 AM 55.9 °F 46.9 °F 72% 30.20 in 10.0 mi SSE 6.9 mph - N/A   Clear
4:53 AM 55.9 °F 46.9 °F 72% 30.21 in 10.0 mi SE 9.2 mph - N/A   Clear
5:53 AM 55.0 °F 46.9 °F 74% 30.23 in 10.0 mi SE 8.1 mph - N/A   Clear
6:53 AM 55.0 °F 46.9 °F 74% 30.25 in 10.0 mi SSE 10.4 mph - N/A   Clear
7:53 AM 57.0 °F 48.0 °F 72% 30.27 in 10.0 mi SSE 10.4 mph 17.3 mph N/A   Clear
8:53 AM 59.0 °F 48.0 °F 67% 30.29 in 10.0 mi SSE 13.8 mph 20.7 mph N/A   Clear
9:53 AM 63.0 °F 48.9 °F 60% 30.28 in 10.0 mi SSE 9.2 mph - N/A   Clear
10:53 AM 66.9 °F 50.0 °F 54% 30.28 in 10.0 mi SSE 10.4 mph 16.1 mph N/A   Clear
11:53 AM 70.0 °F 51.1 °F 51% 30.28 in 10.0 mi South 11.5 mph - N/A   Clear
12:53 PM 71.1 °F 51.1 °F 49% 30.27 in 10.0 mi SSE 5.8 mph - N/A   Clear
1:53 PM 73.0 °F 48.9 °F 42% 30.27 in 10.0 mi South 12.7 mph 17.3 mph N/A   Clear
2:53 PM 75.0 °F 46.9 °F 37% 30.27 in 10.0 mi South 11.5 mph 19.6 mph N/A   Clear
3:53 PM 75.9 °F 46.9 °F 36% 30.26 in 10.0 mi SE 12.7 mph 19.6 mph N/A   Clear
4:53 PM 77.0 °F 46.9 °F 34% 30.26 in 10.0 mi SE 9.2 mph - N/A   Clear
5:53 PM 75.9 °F 46.9 °F 36% 30.26 in 10.0 mi SE 8.1 mph - N/A   Clear
6:53 PM 75.0 °F 46.9 °F 37% 30.26 in 10.0 mi SSE 10.4 mph - N/A   Clear
7:53 PM 72.0 °F 48.0 °F 43% 30.27 in 10.0 mi SSE 4.6 mph - N/A   Clear
8:53 PM 66.9 °F 48.0 °F 51% 30.29 in 10.0 mi Calm Calm - N/A   Clear
9:53 PM 64.9 °F 46.9 °F 52% 30.30 in 10.0 mi SE 3.5 mph - N/A   Clear
10:53 PM 63.0 °F 46.0 °F 54% 30.29 in 10.0 mi ESE 5.8 mph - N/A   Clear
11:53 PM 64.0 °F 41.0 °F 43% 30.29 in 10.0 mi SE 8.1 mph - N/A   Clear